Weather History for KIKK - April, 2013

Change the Weather History Date:

Sunday, April 21, 2013

  Actual Average Record
Temperature  
Mean Temperature 41 °F -  
Max Temperature 51 °F - - ()
Min Temperature 31 °F - - ()
Degree Days  
Heating Degree Days 24    
Moisture  
Dew Point 29 °F    
Average Humidity 60    
Maximum Humidity 80    
Minimum Humidity 45    
Precipitation  
Precipitation 0.00 in - - ()
Sea Level Pressure  
Sea Level Pressure 30.44 in    
Wind  
Wind Speed 11 mph (ESE)    
Max Wind Speed 17 mph    
Max Gust Speed 23 mph    
Visibility 10 miles    
Events      
T = Trace of Precipitation, MM = Missing Value Source: NWS Daily Summary

Daily Weather History Graph

Daily Weather History Graph

Search for Another Location

Airport or City:

Trip Planner

Search our weather history database for the weather conditions in past years. The results will help you decide how hot, cold, wet, or windy it might be!

Date:

Astronomy

Apr. 21, 2013 Rise Set
Actual Time 6:02 AM CDT 7:37 PM CDT
Civil Twilight 5:33 AM CDT 8:07 PM CDT
Nautical Twilight 4:58 AM CDT 8:42 PM CDT
Astronomical Twilight 4:21 AM CDT 9:19 PM CDT
Moon 3:20 PM CDT (4/21) 3:27 AM CDT (4/21)
Length of Visible Light 14h 33m
Length of Day
13h 35m
Waxing Gibbous, 80% of the Moon is Illuminated
Apr 21
Waxing Gibbous
Apr 25
Full
May 2
Last Quarter
May 9
New
May 17
First Quarter

Hourly Weather History & Observations

Time (CDT) Temp. Windchill Dew Point Humidity Pressure Visibility Wind Dir Wind Speed Gust Speed Precip Events Conditions
12:15 AM 33.3 °F 25.1 °F 24.8 °F 71% 30.43 in 10.0 mi East 10.4 mph - N/A   Clear
12:35 AM 33.4 °F 24.8 °F 24.3 °F 69% 30.42 in 10.0 mi East 11.5 mph - N/A   Clear
12:55 AM 33.3 °F 25.7 °F 23.9 °F 69% 30.43 in 10.0 mi East 9.2 mph - N/A   Clear
1:15 AM 33.1 °F 26.1 °F 24.3 °F 70% 30.43 in 10.0 mi ESE 8.1 mph - N/A   Clear
1:35 AM 32.5 °F 27.1 °F 24.4 °F 72% 30.43 in 10.0 mi ESE 5.8 mph - N/A   Clear
4:15 AM 31.6 °F 25.1 °F 25.3 °F 78% 30.47 in 10.0 mi ESE 6.9 mph - N/A   Clear
4:35 AM 31.3 °F 23.9 °F 25.7 °F 80% 30.47 in 10.0 mi ESE 8.1 mph - N/A   Clear
4:55 AM 31.1 °F 23.7 °F 25.5 °F 80% 30.47 in 10.0 mi East 8.1 mph - N/A   Clear
5:15 AM 31.8 °F 24.6 °F 25.5 °F 78% 30.48 in 10.0 mi East 8.1 mph - N/A   Clear
5:35 AM 32.0 °F 24.8 °F 25.3 °F 76% 30.48 in 10.0 mi ESE 8.1 mph - N/A   Clear
5:55 AM 32.0 °F 25.6 °F 24.8 °F 75% 30.49 in 10.0 mi ESE 6.9 mph - N/A   Clear
6:15 AM 32.0 °F 26.4 °F 25.3 °F 76% 30.49 in 10.0 mi SE 5.8 mph - N/A   Clear
6:35 AM 32.0 °F 24.2 °F 25.5 °F 77% 30.50 in 10.0 mi ESE 9.2 mph - N/A   Clear
6:55 AM 33.1 °F 25.5 °F 24.8 °F 72% 30.50 in 10.0 mi ESE 9.2 mph - N/A   Clear
7:15 AM 33.8 °F 25.3 °F 24.4 °F 69% 30.51 in 10.0 mi ESE 11.5 mph - N/A   Clear
7:35 AM 34.9 °F 27.1 °F 24.1 °F 65% 30.51 in 10.0 mi ESE 10.4 mph - N/A   Clear
7:55 AM 35.1 °F 26.4 °F 24.1 °F 64% 30.51 in 10.0 mi ESE 12.7 mph - N/A   Clear
8:15 AM 36.5 °F 28.2 °F 24.1 °F 61% 30.51 in 10.0 mi ESE 12.7 mph - N/A   Clear
8:35 AM 37.6 °F 28.8 °F 23.7 °F 57% 30.51 in 10.0 mi ESE 15.0 mph - N/A   Clear
8:55 AM 39.2 °F 30.5 °F 22.3 °F 51% 30.51 in 10.0 mi ESE 16.1 mph - N/A   Clear
9:15 AM 39.9 °F 31.4 °F 23.2 °F 51% 30.51 in 10.0 mi ESE 16.1 mph 20.7 mph N/A   Clear
9:35 AM 41.4 °F 34.3 °F 24.6 °F 51% 30.52 in 10.0 mi ESE 12.7 mph - N/A   Clear
9:55 AM 42.3 °F 35.1 °F 25.7 °F 52% 30.52 in 10.0 mi ESE 13.8 mph 18.4 mph N/A   Clear
10:15 AM 43.3 °F 36.5 °F 25.5 °F 49% 30.53 in 10.0 mi ESE 13.8 mph 21.9 mph N/A   Clear
10:35 AM 44.1 °F 38.1 °F 26.8 °F 51% 30.52 in 10.0 mi ESE 11.5 mph - N/A   Clear
10:55 AM 44.8 °F 38.7 °F 27.5 °F 51% 30.52 in 10.0 mi SE 12.7 mph 20.7 mph N/A   Clear
11:15 AM 45.9 °F 39.7 °F 28.4 °F 51% 30.52 in 10.0 mi ESE 13.8 mph 19.6 mph N/A   Clear
11:35 AM 45.9 °F 39.7 °F 28.0 °F 50% 30.51 in 10.0 mi ESE 13.8 mph 18.4 mph N/A   Clear
11:55 AM 46.6 °F - 28.4 °F 49% 30.50 in 10.0 mi ESE 12.7 mph 20.7 mph N/A   Clear
12:15 PM 47.7 °F - 30.2 °F 51% 30.49 in 10.0 mi ESE 15.0 mph 20.7 mph N/A   Clear
12:35 PM 46.9 °F - 29.5 °F 51% 30.48 in 10.0 mi ESE 13.8 mph 19.6 mph N/A   Clear
12:55 PM 48.4 °F - 30.9 °F 51% 30.47 in 10.0 mi ESE 15.0 mph 18.4 mph N/A   Clear
1:15 PM 48.2 °F - 30.4 °F 50% 30.46 in 10.0 mi ESE 11.5 mph 17.3 mph N/A   Clear
1:35 PM 49.1 °F - 30.6 °F 49% 30.45 in 10.0 mi SE 13.8 mph - N/A   Clear
1:55 PM 49.3 °F - 30.2 °F 48% 30.44 in 10.0 mi ESE 11.5 mph 23.0 mph N/A   Clear
2:15 PM 50.2 °F - 31.3 °F 48% 30.43 in 10.0 mi SE 17.3 mph 23.0 mph N/A   Clear
2:35 PM 50.9 °F - 32.0 °F 48% 30.41 in 10.0 mi ESE 17.3 mph 23.0 mph N/A   Clear
2:55 PM 50.7 °F - 30.7 °F 46% 30.41 in 10.0 mi ESE 16.1 mph 23.0 mph N/A   Clear
3:15 PM 51.1 °F - 31.1 °F 46% 30.40 in 10.0 mi ESE 17.3 mph 23.0 mph N/A   Clear
3:35 PM 51.3 °F - 30.7 °F 45% 30.39 in 10.0 mi SE 12.7 mph - N/A   Clear
3:55 PM 51.6 °F - 31.8 °F 47% 30.38 in 10.0 mi SE 15.0 mph 19.6 mph N/A   Clear
4:15 PM 51.8 °F - 31.8 °F 47% 30.38 in 10.0 mi SE 17.3 mph 20.7 mph N/A   Clear
4:35 PM 51.4 °F - 32.2 °F 48% 30.37 in 10.0 mi ESE 13.8 mph 20.7 mph N/A   Clear
4:55 PM 51.8 °F - 32.0 °F 47% 30.37 in 10.0 mi ESE 15.0 mph - N/A   Clear
5:15 PM 51.6 °F - 31.8 °F 47% 30.37 in 10.0 mi SE 15.0 mph 18.4 mph N/A   Clear
5:35 PM 51.4 °F - 31.5 °F 46% 30.37 in 10.0 mi SE 15.0 mph 20.7 mph N/A   Clear
5:55 PM 51.3 °F - 32.2 °F 48% 30.37 in 10.0 mi SE 12.7 mph - N/A   Clear
6:15 PM 50.9 °F - 32.0 °F 48% 30.37 in 10.0 mi ESE 11.5 mph - N/A   Clear
6:35 PM 50.5 °F - 32.5 °F 50% 30.37 in 10.0 mi ESE 9.2 mph - N/A   Clear
6:55 PM 50.0 °F - 32.4 °F 51% 30.36 in 10.0 mi ESE 10.4 mph 17.3 mph N/A   Clear
7:15 PM 48.7 °F - 32.9 °F 54% 30.36 in 10.0 mi ESE 11.5 mph 16.1 mph N/A   Clear
7:35 PM 47.7 °F - 33.3 °F 57% 30.37 in 10.0 mi ESE 10.4 mph - N/A   Clear
7:55 PM 46.4 °F 41.9 °F 33.8 °F 62% 30.37 in 10.0 mi ESE 9.2 mph - N/A   Clear
8:15 PM 45.5 °F 40.8 °F 34.7 °F 66% 30.37 in 10.0 mi ESE 9.2 mph - N/A   Clear
8:35 PM 45.5 °F 40.8 °F 34.2 °F 65% 30.36 in 10.0 mi ESE 9.2 mph - N/A   Clear
8:55 PM 44.6 °F 40.2 °F 34.3 °F 67% 30.36 in 10.0 mi ESE 8.1 mph - N/A   Clear
9:15 PM 43.7 °F 39.7 °F 34.7 °F 71% 30.37 in 10.0 mi ESE 6.9 mph - N/A   Clear
9:35 PM 43.2 °F 38.4 °F 34.7 °F 72% 30.37 in 10.0 mi ESE 8.1 mph - N/A   Clear
9:55 PM 42.6 °F 37.8 °F 34.9 °F 74% 30.36 in 10.0 mi ESE 8.1 mph - N/A   Clear
10:55 PM 41.4 °F 36.2 °F 34.3 °F 76% 30.35 in 10.0 mi ESE 8.1 mph - N/A   Clear
11:15 PM 40.5 °F 35.1 °F 34.2 °F 78% 30.35 in 10.0 mi ESE 8.1 mph - N/A   Clear
11:35 PM 39.7 °F 35.6 °F 34.0 °F 80% 30.35 in 10.0 mi ESE 5.8 mph - N/A   Clear
11:55 PM 39.4 °F 33.8 °F 33.8 °F 80% 30.35 in 10.0 mi ESE 8.1 mph - N/A   Clear